Fayetteville, NC

10:48 AM EDT on September 19, 2017 (GMT -0400)
Fayetteville Regional-Grannis

Weather History for KFAY - July, 2014

Change the Weather History Date:

Monday, July 28, 2014

  Actual Average Record
Temperature  
Mean Temperature 87 °F 81 °F  
Max Temperature 97 °F 91 °F 105 °F (1940)
Min Temperature 77 °F 71 °F 55 °F (1920)
Degree Days  
Heating Degree Days 0 0  
Month to date heating degree days 0 0  
Since 1 June heating degree days 0 0  
Since 1 July heating degree days 0 0  
Cooling Degree Days 22 16  
Month to date cooling degree days 447 459  
Year to date cooling degree days 1270 1139  
Since 1 June cooling degree days 904 855  
Growing Degree Days 38 (Base 50)    
Moisture  
Dew Point 65 °F    
Average Humidity 50    
Maximum Humidity 69    
Minimum Humidity 31    
Precipitation  
Precipitation 0.00 in 0.18 in 3.11 in (1943)
Month to date precipitation 1.83 5.38  
Year to date precipitation 22.97 25.40  
Sea Level Pressure  
Sea Level Pressure 29.77 in    
Wind  
Wind Speed 11 mph (WNW)    
Max Wind Speed 22 mph    
Max Gust Speed 29 mph    
Visibility 10 miles    
Events      
T = Trace of Precipitation, MM = Missing Value Source: NWS Daily Summary

Daily Weather History Graph

Daily Weather History Graph

Search for Another Location

Airport or City:

Trip Planner

Search our weather history database for the weather conditions in past years. The results will help you decide how hot, cold, wet, or windy it might be!

Date:

Astronomy

Jul. 28, 2014 Rise Set
Actual Time 6:21 AM EDT 8:21 PM EDT
Civil Twilight 5:53 AM EDT 8:49 PM EDT
Nautical Twilight 5:19 AM EDT 9:23 PM EDT
Astronomical Twilight 4:43 AM EDT 10:00 PM EDT
Moon 7:55 AM EDT (7/28) 9:09 PM EDT (7/28)
Length of Visible Light 14h 55m
Length of Day
13h 59m
Waxing Crescent, 3% of the Moon is Illuminated
Jul 28
Waxing Crescent
Aug 3
First Quarter
Aug 10
Full
Aug 17
Last Quarter
Aug 25
New

Hourly Weather History & Observations

Time (EDT) Temp. Heat Index Dew Point Humidity Pressure Visibility Wind Dir Wind Speed Gust Speed Precip Events Conditions
12:53 AM 86.0 °F 92.2 °F 72.0 °F 63% 29.76 in 10.0 mi SW 15.0 mph - N/A   Clear
1:53 AM 84.9 °F 90.7 °F 72.0 °F 65% 29.73 in 10.0 mi SW 18.4 mph 27.6 mph N/A   Scattered Clouds
2:53 AM 84.9 °F 90.7 °F 72.0 °F 65% 29.76 in 10.0 mi West 13.8 mph 24.2 mph N/A   Clear
3:53 AM 82.9 °F 88.0 °F 72.0 °F 69% 29.77 in 10.0 mi West 12.7 mph - N/A   Clear
4:53 AM 82.9 °F 85.8 °F 68.0 °F 60% 29.76 in 10.0 mi West 13.8 mph - N/A   Clear
5:53 AM 81.0 °F 83.0 °F 66.0 °F 60% 29.76 in 10.0 mi WSW 8.1 mph - N/A   Clear
6:53 AM 79.0 °F - 66.9 °F 66% 29.77 in 10.0 mi WSW 5.8 mph - N/A   Clear
7:53 AM 79.0 °F - 66.9 °F 66% 29.78 in 10.0 mi WSW 8.1 mph - N/A   Clear
8:53 AM 82.0 °F 84.5 °F 66.9 °F 60% 29.80 in 10.0 mi West 9.2 mph - N/A   Clear
10:53 AM 88.0 °F 90.7 °F 66.9 °F 49% 29.79 in 10.0 mi West 9.2 mph - N/A   Clear
11:53 AM 91.9 °F 93.3 °F 64.0 °F 39% 29.78 in 10.0 mi West 11.5 mph - N/A   Clear
12:53 PM 95.0 °F 97.0 °F 64.0 °F 36% 29.77 in 10.0 mi West 13.8 mph 21.9 mph N/A   Clear
3:53 PM 96.1 °F 97.3 °F 63.0 °F 33% 29.74 in 10.0 mi WNW 12.7 mph 19.6 mph N/A   Partly Cloudy
4:53 PM 95.0 °F 95.2 °F 61.0 °F 32% 29.73 in 10.0 mi NNW 11.5 mph - N/A   Clear
5:53 PM 93.0 °F 92.3 °F 59.0 °F 32% 29.73 in 10.0 mi WNW 13.8 mph - N/A   Clear
6:53 PM 91.0 °F 91.5 °F 62.1 °F 38% 29.75 in 10.0 mi NW 11.5 mph - N/A   Clear
7:53 PM 89.1 °F 87.7 °F 57.0 °F 34% 29.78 in 10.0 mi NNW 11.5 mph - N/A   Scattered Clouds
8:53 PM 84.9 °F 85.0 °F 61.0 °F 44% 29.80 in 10.0 mi North 9.2 mph - N/A   Overcast
9:53 PM 82.0 °F 82.7 °F 61.0 °F 49% 29.83 in 10.0 mi NNE 5.8 mph - N/A   Mostly Cloudy
10:53 PM 80.1 °F 81.5 °F 63.0 °F 56% 29.84 in 10.0 mi NNE 5.8 mph - N/A   Mostly Cloudy
11:53 PM 80.1 °F 80.6 °F 57.9 °F 47% 29.84 in 10.0 mi North 6.9 mph - N/A   Mostly Cloudy